Location: Tr�vern
(48.0333°N, 4.6000°W)
Time: 19:19:00
(UTC+00:00)

CBERS-1 - Pass Details

Date: 14 July 2020
Orbit: 770 x 777 km, 98.6° (Epoch: 12 August)

Event Time Altitude Azimuth Distance (km) Brightness Sun altitude
Rises 02:31:34 0° 15° (NNE) 3,270 8.9 -14.7°
Reaches altitude 10° 02:33:54 10° 18° (NNE) 2,337 7.8 -14.5°
Maximum altitude 02:39:03 73° 103° (ESE) 813 4.2 -14.1°
Enters shadow 02:43:04 17° 187° (S) 1,886 5.5 -13.7°
